TimePDT,TemperatureF,Dew PointF,Humidity,Sea Level PressureIn,VisibilityMPH,Wind Direction,Wind SpeedMPH,Gust SpeedMPH,PrecipitationIn,Events,Conditions,WindDirDegrees,DateUTC
12:53 AM,63.0,55.0,75,30.05,10.0,Calm,Calm,-,N/A,,Clear,0,2012-10-15 07:53:00
1:53 AM,62.1,54.0,75,30.05,10.0,Calm,Calm,-,N/A,,Clear,0,2012-10-15 08:53:00
2:53 AM,57.9,54.0,87,30.04,10.0,Calm,Calm,-,N/A,,Clear,0,2012-10-15 09:53:00
3:53 AM,57.0,53.1,87,30.04,10.0,Calm,Calm,-,N/A,,Clear,0,2012-10-15 10:53:00
4:53 AM,57.9,53.1,84,30.04,10.0,Calm,Calm,-,N/A,,Clear,0,2012-10-15 11:53:00
5:53 AM,57.0,53.1,87,30.05,10.0,WNW,3.5,-,N/A,,Clear,300,2012-10-15 12:53:00
6:53 AM,57.0,53.1,87,30.05,10.0,Calm,Calm,-,N/A,,Clear,0,2012-10-15 13:53:00
7:53 AM,57.9,53.1,84,30.06,10.0,WNW,3.5,-,N/A,,Clear,290,2012-10-15 14:53:00
8:53 AM,62.1,55.0,78,30.07,10.0,NW,3.5,-,N/A,,Clear,310,2012-10-15 15:53:00
9:53 AM,68.0,55.0,63,30.06,10.0,WNW,5.8,-,N/A,,Clear,300,2012-10-15 16:53:00
10:53 AM,72.0,55.9,57,30.06,10.0,North,5.8,-,N/A,,Clear,350,2012-10-15 17:53:00
11:53 AM,75.0,55.9,51,30.04,10.0,NW,6.9,-,N/A,,Clear,320,2012-10-15 18:53:00
12:53 PM,79.0,55.0,44,30.02,10.0,NW,10.4,-,N/A,,Clear,320,2012-10-15 19:53:00
1:53 PM,80.1,55.9,43,29.98,10.0,NNW,9.2,-,N/A,,Clear,330,2012-10-15 20:53:00
2:53 PM,82.9,55.0,38,29.95,10.0,NNW,11.5,-,N/A,,Clear,340,2012-10-15 21:53:00
3:53 PM,82.9,54.0,37,29.94,10.0,NNW,12.7,-,N/A,,Clear,340,2012-10-15 22:53:00
4:53 PM,82.9,53.1,36,29.93,10.0,WNW,12.7,-,N/A,,Clear,300,2012-10-15 23:53:00
5:53 PM,81.0,54.0,39,29.92,10.0,NW,10.4,-,N/A,,Clear,320,2012-10-16 00:53:00
6:53 PM,75.9,53.1,45,29.93,10.0,NW,4.6,-,N/A,,Clear,310,2012-10-16 01:53:00
7:53 PM,73.9,54.0,50,29.93,10.0,NW,4.6,-,N/A,,Clear,310,2012-10-16 02:53:00
8:53 PM,70.0,53.1,55,29.94,10.0,WNW,5.8,-,N/A,,Clear,300,2012-10-16 03:53:00
9:53 PM,69.1,53.1,57,29.95,10.0,NW,5.8,-,N/A,,Clear,320,2012-10-16 04:53:00
10:53 PM,66.0,53.1,63,29.96,10.0,Calm,Calm,-,N/A,,Clear,0,2012-10-16 05:53:00
11:53 PM,66.9,53.1,61,29.96,10.0,North,4.6,-,N/A,,Clear,10,2012-10-16 06:53:00